Location: Chwarstnica
(53.2204°N, 14.6100°E)
Time: 02:10:07
(UTC+00:00)

Daily predictions for brighter satellites

Satellite Brightness Start Highest point End
(mag) Time Altitude Azimuth Time Altitude Azimuth Time Altitude Azimuth
Cosmos 2344 4.1 02:45:54 81° WSW 02:46:08 82° SW 02:58:40 10° SE
Cosmos 2263 Rocket 4.1 02:51:31 22° NNE 02:51:31 22° NNE 02:53:28 10° NNE
ATLAS 2AS CENTAUR R/B 3.1 02:52:20 75° ENE 02:52:20 75° ENE 02:59:22 10° NE
COSMOS 2455 4.2 03:06:03 25° SSE 03:08:25 34° ESE 03:13:48 10° NE
Cosmos 1833 Rocket 3.5 03:16:08 45° NE 03:16:29 45° NE 03:21:51 10° ESE
ALOS 3.7 03:15:23 10° NNE 03:18:27 34° NE 03:18:27 34° NE
Cosmos 2082 Rocket 3.5 03:20:00 30° NNE 03:21:23 34° NE 03:26:34 10° ESE
Cosmos 2074 Rocket 4.4 03:17:02 10° S 03:23:06 60° E 03:29:13 10° NNE
SL-4 R/B 4.4 03:31:08 18° SE 03:31:08 18° SE 03:32:13 10° ESE
Lacrosse 5 2.6 03:33:29 50° NE 03:33:29 50° NE 03:37:17 10° ENE
ATLAS 3B R/B 4.3 03:36:30 20° SSW 03:36:30 20° SSW 03:38:50 10° S
USA 307 4.4 03:46:24 32° SE 03:46:24 32° SE 03:48:53 10° SE
CZ-4C R/B 2.2 03:47:08 71° NNW 03:47:08 71° NNW 03:53:18 10° NE
Cosmos 2184 Rocket 4.0 03:42:13 10° S 03:48:35 84° E 03:55:02 10° NNE
USA 308 4.2 03:52:48 34° SSE 03:52:48 34° SSE 03:55:29 10° SE
Cosmos 2278 Rocket 4.1 03:48:41 10° SSE 03:53:26 29° ESE 03:58:13 10° NE
Cosmos 2227 Rocket 4.2 03:57:31 14° N 03:57:31 14° N 03:59:58 10° NNE
COSMO-SKYMED 1 2.8 03:56:25 10° SSE 04:00:09 65° SSE 04:00:09 65° SSE
Cosmos 1898 Rocket 3.9 04:02:03 48° NNW 04:02:03 48° NNW 04:06:15 10° NNE
Cosmos 494 Rocket 4.2 03:59:44 42° N 04:01:23 65° ENE 04:06:28 10° SE
Cosmos 1844 Rocket 2.5 04:02:41 68° WNW 04:02:57 69° NW 04:08:40 10° NNE
deb Chang Zheng 4 4.0 03:59:13 10° NNE 04:03:33 61° ESE 04:07:52 10° S
COSMOS 2406 3.1 04:02:25 58° NW 04:03:39 85° WSW 04:09:26 10° SSE
Cosmos 1805 Rocket 4.1 04:00:11 10° S 04:04:34 59° E 04:08:58 10° NNE
SL-24 R/B 4.3 04:01:24 10° SSE 04:06:36 83° ENE 04:07:58 47° N
Cosmos 1937 Rocket 3.4 04:07:09 65° NW 04:07:09 65° NW 04:12:06 10° NNE
USA 305 3.9 04:16:56 35° S 04:16:56 35° S 04:20:14 10° SE
USA 229 DEB 4.2 04:13:57 31° NW 04:17:36 62° NNE 04:25:08 10° ESE
USA 229 4.2 04:14:04 31° NW 04:17:42 62° NNE 04:25:13 10° ESE
ATLAS 5 CENTAUR R/B 2.3 04:17:17 24° S 04:19:28 49° SE 04:23:58 10° NE
Nadezhda 3 Rocket 3.9 04:14:23 10° NNW 04:20:38 67° W 04:26:46 10° S
RESURS DK-1 4.1 04:23:09 22° N 04:23:09 22° N 04:25:02 10° NNE
Cosmos 1242 Rocket 3.6 04:21:24 25° NNE 04:23:07 44° ENE 04:26:39 10° SE
NOSS 3-4 (A) 3.9 04:22:14 38° NW 04:23:29 42° NNW 04:29:51 10° NE
NOSS 3-4 (C) 3.9 04:22:20 38° NW 04:23:35 42° NNW 04:29:57 10° NE
USA 306 3.9 04:25:27 33° SSW 04:25:27 33° SSW 04:28:56 10° SSE
NOSS 3-1 (C) 4.0 04:22:37 30° NW 04:26:38 76° NE 04:35:03 10° SE
CZ-2C R/B 4.0 04:22:09 10° SE 04:27:00 36° ENE 04:31:48 10° N
MOS 1 Rocket 3.7 04:22:13 10° SSE 04:27:18 73° ENE 04:32:39 10° N
Cosmos 1048 Rocket 4.0 04:28:12 47° WNW 04:29:24 59° WSW 04:34:29 10° S
Cosmos 2297 Rocket 4.2 04:29:28 12° NNW 04:30:40 13° N 04:33:13 10° NNE
ADEOS 3.5 04:26:23 10° N 04:31:34 61° WNW 04:36:42 10° SSW
NOSS 3-1 (A) 4.2 04:27:36 27° NW 04:31:48 64° NE 04:40:03 10° ESE
FENGYUN 3A 3.7 04:26:45 10° N 04:32:01 53° WNW 04:36:30 14° SW
Cosmos 1633 Rocket 4.1 04:28:36 10° SSE 04:32:50 47° E 04:37:05 10° NNE
Cosmos 2263 Rocket 3.6 04:33:14 21° NNW 04:33:14 21° NNW 04:37:10 10° NNE
Meteor 1-27 Rocket 3.7 04:29:03 17° NNW 04:33:31 65° W 04:39:20 10° S
Meteor 1-31 Rocket 4.2 04:30:11 10° N 04:31:58 25° N 04:31:58 25° N
Cosmos 1125 Rocket 4.3 04:29:27 10° S 04:34:30 53° ESE 04:39:34 10° NNE
BREEZE-M DEB (TANK) 4.0 04:34:15 24° SSW 04:35:01 27° S 04:38:49 10° ESE
Cosmos 1269 Rocket 4.3 04:33:15 19° NNW 04:37:02 67° ENE 04:42:17 10° SE
FALCON 9 DEB 2.9 04:37:59 80° SE 04:37:59 80° SE 04:41:04 10° E
H-2A R/B 3.5 04:34:13 10° NNE 04:38:04 55° E 04:41:51 10° S
Cosmos 1844 3.8 04:37:53 37° W 04:39:38 50° NW 04:45:07 10° NNE
ATLAS 2AS CENTAUR R/B 3.4 04:39:47 30° WNW 04:43:18 47° NNW 04:50:38 10° NE
FALCON 9 DEB 2.8 04:43:29 83° SW 04:43:33 85° S 04:46:47 10° E
Cosmos 1356 3.2 04:42:32 10° SSW 04:45:57 85° WNW 04:49:23 10° NNE
METEOR-M 4.2 04:41:42 10° N 04:46:52 50° WNW 04:52:00 10° SW
SJ-12 3.9 04:44:47 10° N 04:48:47 57° WNW 04:52:46 10° SSW
SKYMED 2 4.1 04:44:58 10° SSW 04:48:46 36° WSW 04:48:46 36° WSW
Cosmos 1707 Rocket 3.5 04:47:28 30° NNW 04:49:22 56° W 04:53:36 10° S
deb Kosmos-1763 4.0 04:48:55 37° NNW 04:50:15 84° ENE 04:53:52 10° SSE
Cosmos 372 Rocket 4.0 04:49:28 15° SW 04:53:34 53° WNW 04:58:36 10° NNE
Cosmos 2150 Rocket 3.9 04:48:46 10° SSW 04:54:03 85° WNW 04:59:18 10° NNE
COSMOS 2455 2.8 04:49:17 16° SW 04:54:04 64° NW 05:00:07 10° NE
SJ 16-02 3.7 04:56:10 10° NNW 04:56:10 10° NNW 04:56:19 10° N
Cosmos 2154 Rocket 4.1 04:51:04 10° SSW 04:57:09 52° WNW 05:03:20 10° N
ALOS 3.0 04:53:05 10° N 04:56:56 30° WNW 04:56:56 30° WNW
Cosmos 2298 Rocket 3.9 04:52:18 10° SSW 04:57:36 76° WNW 05:02:56 10° NNE
PSLV R/B 4.4 04:55:20 10° SSW 04:59:09 37° W 04:59:49 34° WNW
Meteor 1-19 Rocket 4.3 04:54:27 10° N 04:59:55 73° ENE 05:05:19 10° SSE
ASTRO F (AKARI) 4.3 04:56:51 10° NNE 05:00:00 77° ESE 05:03:14 10° SSW
Cosmos 1833 Rocket 3.0 04:57:52 27° WNW 05:00:26 43° WSW 05:05:42 10° S
Sich 1 3.1 04:58:03 10° SSW 05:02:24 54° WNW 05:06:46 10° N
Cosmos 1295 Rocket 4.5 04:57:50 10° SSW 05:03:47 55° WNW 05:09:50 10° N
Okean 1 3.4 05:01:21 10° N 05:05:26 83° E 05:09:29 10° SSE
SL-8 Rocket 4.0 04:59:23 10° S 05:05:34 87° E 05:11:49 10° N
Cosmos 2082 Rocket 2.2 05:01:52 20° NW 05:05:54 65° WSW 05:11:33 10° SSE
SL-4 R/B 3.6 05:06:44 17° SW 05:07:26 18° SW 05:10:04 10° S
FALCON 9 DEB 2.9 05:07:03 40° W 05:08:03 76° SSW 05:11:17 10° ESE
USA 290 2.5 05:07:38 39° WNW 05:08:21 48° WSW 05:11:29 10° S
Cosmos 1703 Rocket 4.5 05:04:14 10° N 05:08:28 49° ENE 05:12:40 10° SSE
SL-24 DEB 4.3 05:04:37 10° S 05:09:20 59° W 05:14:06 10° N
CZ-4B R/B 4.4 05:07:00 10° NNE 05:12:11 46° E 05:17:27 10° S
Meteor 1-18 Rocket 4.2 05:07:20 10° NNW 05:13:05 90° WSW 05:18:41 10° S
Lacrosse 5 2.1 05:12:41 24° WNW 05:15:37 56° N 05:20:38 10° E
Cosmos 1602 3.9 05:11:57 10° S 05:15:52 75° E 05:19:49 10° NNE
Cosmos 1727 Rocket 4.0 05:13:30 10° N 05:19:53 90° NNE 05:26:15 10° S
Cosmos 1470 Rocket 3.7 05:15:35 10° S 05:19:57 78° E 05:24:19 10° NNE
Cosmos 1818 4.5 05:15:19 10° SSW 05:20:34 52° SE 05:25:52 10° NE
Meteor 1-25 Rocket 4.1 05:17:28 10° SSW 05:23:02 85° WNW 05:28:40 10° NNE
ERBS 2.2 05:21:36 27° WNW 05:23:15 83° SSW 05:26:34 10° ESE
Cosmos 2341 Rocket 4.0 05:17:39 10° SSW 05:23:46 59° WNW 05:29:59 10° N
Meteor PRIRODA 4.3 05:20:52 10° N 05:24:16 34° WNW 05:27:39 10° SW
Cosmos 909 Rocket 4.1 05:20:13 15° NW 05:25:39 88° NE 05:32:25 10° SE
CZ-4B R/B 3.6 05:22:13 10° N 05:26:19 36° WNW 05:30:15 10° SW
SJ-7 4.5 05:26:49 10° N 05:30:51 56° WNW 05:34:54 10° SSW
Cosmos 1437 4.1 05:32:08 10° N 05:34:53 34° ENE 05:37:37 10° SE
Okean O Rocket 2.1 05:31:37 10° NNE 05:36:04 67° ESE 05:40:31 10° S
CZ-4C R/B 3.2 05:32:20 17° WNW 05:36:23 36° N 05:42:44 10° NE
Cosmos 1862 Rocket 4.1 05:32:31 10° NNW 05:36:38 38° W 05:40:42 10° SSW
Envisat 2.9 05:31:49 10° N 05:36:54 69° WNW 05:41:56 10° SSW
Cosmos 2278 Rocket 2.2 05:31:31 10° SW 05:37:09 64° NW 05:42:49 10° NNE
NOSS 2-1 (D) 4.3 05:34:03 10° SSW 05:37:13 43° SE 05:40:39 10° NE
COSMO-SKYMED 1 4.3 05:35:09 10° WSW 05:37:21 14° W 05:37:21 14° W
FALCON 9 DEB 3.3 05:35:47 19° W 05:37:52 57° SSW 05:41:02 10° ESE
NOAA 6 4.0 05:35:13 10° NNE 05:40:21 73° WNW 05:45:27 10° SSW
DMSP B5D2-2 4.1 05:36:08 10° SSE 05:41:21 85° WSW 05:46:36 10° NNW
YAOGAN 6 2.7 05:38:55 10° N 05:42:18 46° WNW 05:45:39 10° SW
Cosmos 2227 Rocket 4.3 05:40:34 10° NNW 05:43:36 14° NNE 05:46:40 10° NE
Cosmos 1515 4.0 05:40:10 10° NNW 05:43:48 43° W 05:47:24 10° SSW
SMAP 3.1 05:40:47 10° NNE 05:45:30 88° W 05:50:09 10° SSW
Cosmos 1666 4.5 05:42:19 10° SSE 05:45:46 35° E 05:49:15 10° NNE
Cosmos 1844 Rocket 3.9 05:44:25 13° WNW 05:47:55 22° NNW 05:52:19 10° NNE
Cosmos 1238 Rocket 3.4 05:45:45 10° SSE 05:48:34 44° E 05:51:34 10° NNE
Cosmos 1933 Rocket 3.5 05:45:02 10° SSW 05:49:28 80° WNW 05:53:58 10° N
Cosmos 1666 Rocket 4.3 05:46:57 10° SW 05:50:48 30° WNW 05:54:41 10° N
Cosmos 1500 3.3 05:47:15 10° S 05:50:59 81° E 05:54:47 10° NNE
Cosmos 1943 Rocket 3.8 05:48:35 10° S 05:53:37 38° ESE 05:58:42 10° NE
BREEZE-M (TANK) 4.1 05:50:12 10° SW 05:54:10 26° S 05:56:12 10° ESE
Meteor 1-13 Rocket 4.5 05:50:30 10° N 05:56:09 74° ENE 06:01:39 10° SSE
Cosmos 1242 Rocket 4.1 05:55:27 12° NW 05:57:41 18° W 06:00:17 10° SW
H-2A R/B 2.5 05:54:18 10° N 05:57:59 46° WNW 06:01:40 10° SW
Meteor 2-4 Rocket 3.8 05:53:01 10° NNW 05:58:49 68° W 06:04:25 10° S
Cosmos 1271 Rocket 2.8 05:55:23 10° NNW 05:59:09 56° W 06:02:57 10° S
RESURS DK-1 4.5 05:59:21 10° NW 06:00:35 11° NNW 06:01:50 10° N
Okean 3 3.8 05:56:29 10° N 06:00:49 70° ENE 06:05:06 10° SSE
Meteor 2-20 4.5 05:57:12 10° NNW 06:03:22 70° W 06:09:28 10° S
ATLAS 5 CENTAUR R/B 2.1 06:00:06 10° W 06:04:12 41° NNW 06:08:56 10° NE
CZ-2C R/B 3.0 06:02:06 10° S 06:07:15 45° W 06:12:19 10° NNW
Cosmos 2251 Rocket 3.5 06:02:21 10° NNW 06:07:38 81° WSW 06:12:53 10° SSE
NOAA 12 4.1 06:03:11 10° NNE 06:08:26 68° WNW 06:13:37 10° SSW
USA 229 DEB 4.3 06:01:39 10° NW 06:08:38 52° SW 06:15:59 10° SSE
USA 229 4.3 06:01:46 10° NW 06:08:44 52° SW 06:16:05 10° SSE
Okean 1-7 3.2 06:05:09 10° NNW 06:09:19 49° W 06:13:25 10° S
Cosmos 2369 Rocket 4.2 06:04:46 10° S 06:09:50 34° ESE 06:14:55 10° NE
Cosmos 2366 rocket 4.3 06:03:58 10° SW 06:09:58 45° WNW 06:15:57 10° N
Cosmos 1633 Rocket 4.1 06:07:13 10° WSW 06:10:52 25° WNW 06:14:31 10° N
H-2A R/B 4.1 06:09:04 10° NNW 06:11:53 19° WNW 06:14:41 10° WSW
CORIOLIS 4.2 06:07:54 10° NNE 06:13:22 73° WNW 06:18:46 10° SSW
FALCON 9 DEB 3.9 06:10:38 10° W 06:13:40 38° SSW 06:16:42 10° SE
Cosmos 2218 Rocket 4.4 06:09:57 10° SW 06:15:45 40° WNW 06:21:33 10° N
NOSS 3-4 (A) 4.5 06:10:03 10° WNW 06:15:53 35° N 06:22:20 10° ENE
NOSS 3-4 (C) 4.5 06:10:09 10° WNW 06:16:00 35° N 06:22:25 10° ENE
CZ-2D R/B 3.9 06:12:19 10° NNE 06:16:13 63° ESE 06:20:04 10° S
Cosmos 1125 Rocket 4.2 06:12:11 10° WSW 06:16:51 32° NW 06:21:33 10° NNE
Cosmos 2297 Rocket 4.1 06:13:13 10° NNW 06:17:10 19° NNE 06:21:05 10° ENE
Cosmos 2263 Rocket 4.1 06:16:32 10° NNW 06:19:09 13° N 06:21:45 10° NNE
GENESIS II 4.2 06:15:18 10° SW 06:19:20 70° NW 06:23:21 10° NE
FALCON 9 DEB 4.0 06:16:25 10° W 06:19:25 37° SSW 06:22:25 10° SE
Iridium 2 4.3 06:17:10 10° NNW 06:20:39 37° W 06:24:07 10° SSW
NOSS 3-1 (A) 4.4 06:15:46 10° NW 06:22:54 53° SW 06:31:09 10° SSE
